Temperature
22 23 23 22 22 22 20 19 17 16 17 17 17 15 14 14 15 15 15 14 14 13 12 12 11 11 11 11 12 12 12 12 12 12 12 12 12 12 12 12 12 12 12 12
21 22 22 22 22 21 20 20 18 17 17 17 16 15 14 14 14 14 14 13 13 12 12 11 11 11 11 11 11 12 12 12 12 12 12 12 12 12 12 12 12 12 12 12
20 21 21 20 21 20 20 20 19 17 16 16 15 15 14 14 14 14 14 13 12 12 11 11 10 10 10 11 11 11 11 11 11 12 12 12 12 12 11 11 11 11 11 11
20 20 18 20 22 21 20 20 19 18 17 17 16 15 15 14 14 14 13 13 12 11 11 10 10 10 10 10 11 11 11 11 11 11 11 11 11 11 11 11 11 11 11 11
19 19 20 21 22 21 19 19 20 19 18 18 16 15 15 14 13 13 13 12 12 11 11 10 10 10 10 10 11 11 11 10 10 10 10 10 10 11 11 11 11 10 10 11
19 19 18 21 22 21 20 18 19 19 18 18 17 16 15 14 14 13 13 12 11 11 10 10 10 10 10 10 10 10 10 10 10 10 10 10 10 10 10 10 10 10 10 10
20 20 21 22 21 21 18 18 18 18 18 18 17 16 14 14 13 13 12 11 11 11 10 10 10 10 10 10 10 10 10 10 10 10 10 9 9 9 9 9 9 9 10 10
21 20 20 21 21 20 19 18 18 18 18 18 17 15 15 14 13 12 12 11 11 11 10 10 10 10 9 10 10 10 10 9 9 9 9 9 9 9 9 9 9 9 9 9
21 21 21 21 21 20 19 19 18 18 18 18 17 16 15 14 13 13 13 12 12 11 10 10 10 9 9 9 9 9 9 9 9 9 9 9 9 9 9 9 8 9 9 8
20 21 21 21 21 20 19 19 18 18 18 17 17 16 15 14 14 13 12 12 11 11 10 10 10 9 9 9 9 9 8 8 8 9 9 9 9 9 9 8 8 8 8 8
20 21 21 21 20 20 20 19 18 18 18 17 17 16 15 14 14 13 12 11 11 10 10 10 10 9 9 9 9 8 8 8 8 8 8 8 8 8 8 8 8 8 8 8
20 21 21 21 20 20 20 19 18 18 18 17 16 16 15 14 13 12 12 11 11 10 10 10 10 9 9 9 9 9 9 8 8 8 8 8 8 8 8 8 8 8 8 8
20 20 20 20 20 20 20 19 18 17 17 17 16 16 15 14 13 12 12 11 11 11 10 10 10 9 9 9 9 9 9 9 9 9 9 8 8 8 9 9 9 9 9 8
19 19 19 19 20 20 20 20 19 18 17 17 16 16 15 14 13 13 12 12 11 11 11 10 10 10 10 10 10 10 10 10 10 10 10 10 10 10 9 9 9 9 9 8
19 19 19 20 20 19 19 19 19 18 17 17 16 15 15 14 13 13 12 12 12 12 11 11 11 10 10 10 10 10 10 11 10 11 11 11 11 11 11 11 11 10 10 9
19 19 19 20 20 19 19 19 19 18 18 17 16 15 15 14 14 13 13 12 12 12 12 11 11 11 11 11 10 10 10 10 11 11 11 11 11 12 12 11 11 11 10 9
19 19 19 19 19 19 19 19 19 19 18 17 16 16 15 15 14 13 13 13 12 12 12 11 11 11 11 11 10 11 11 11 11 11 11 12 12 12 11 11 11 11 10 10
19 18 18 18 18 18 18 19 19 19 18 18 17 16 15 15 14 14 13 13 13 12 12 12 11 11 11 11 11 11 12 11 11 11 11 12 12 11 11 11 11 11 10 9
18 18 18 18 18 18 18 18 18 19 18 18 17 17 16 15 15 14 14 13 13 13 12 12 12 12 11 11 11 11 11 12 12 11 11 12 11 11 11 11 11 10 10 9
17 17 17 17 17 17 17 17 17 18 18 18 18 17 16 16 15 14 14 14 13 13 13 13 12 12 12 11 11 11 11 11 12 12 12 12 11 11 11 11 11 10 9 9
16 16 16 16 16 15 16 16 16 17 17 18 18 17 17 16 15 15 14 14 14 14 13 13 13 12 12 12 11 11 11 11 11 12 12 12 12 11 11 11 10 10 9 8
15 15 15 15 15 14 14 14 14 15 16 17 18 17 17 16 15 15 15 14 14 14 14 14 13 13 13 12 12 12 11 12 12 12 12 12 12 12 11 11 10 9 9 8
14 14 13 13 13 14 13 14 14 14 15 16 17 17 17 16 16 15 15 15 14 14 14 14 14 14 13 13 12 12 11 11 12 12 12 12 12 12 11 11 10 9 9 8
13 13 13 13 13 13 13 13 13 13 14 14 15 16 16 16 16 15 15 15 15 14 14 14 14 14 14 13 12 12 12 12 12 12 12 12 12 11 11 10 9 9 9 8
12 12 12 12 12 12 12 12 12 12 13 14 15 15 16 16 16 15 15 15 15 14 14 14 14 14 14 13 13 12 12 12 12 12 12 12 12 11 10 10 9 9 8 8
12 12 12 12 11 11 11 11 11 12 12 12 13 15 15 15 15 15 15 15 15 15 14 14 14 14 14 13 13 13 13 13 12 12 12 12 11 11 10 9 9 9 8 8
11 11 11 11 11 10 11 11 11 11 11 11 11 12 13 14 14 14 14 14 14 14 14 14 14 14 13 13 13 13 13 13 12 12 12 11 11 10 9 9 9 9 8 8
Wind_Speed
15 18 18 17 17 15 14 12 11 13 16 17 15 7 6 4 4 6 6 5 3 2 1 1 2 3 4 5 4 4 3 3 3 3 3 3 3 4 4 5 6 6 7 8
16 17 16 15 15 13 13 13 11 13 14 9 5 4 7 8 7 5 5 3 1 0 1 2 3 4 4 3 3 4 3 4 5 5 3 3 3 4 4 4 5 6 7 9
15 16 14 12 10 10 12 13 12 12 9 4 2 3 5 7 7 6 5 4 3 1 1 3 4 5 5 3 2 3 4 5 6 6 5 4 5 7 7 7 8 7 7 8
14 14 12 7 5 8 10 10 8 8 4 2 2 4 5 5 5 4 4 4 3 2 2 3 5 6 5 3 2 2 4 5 5 6 5 5 7 8 8 7 7 7 7 7
10 12 12 10 6 4 8 12 8 4 2 1 2 4 7 9 8 7 6 5 3 2 3 4 5 5 4 3 2 2 3 4 5 4 4 4 6 6 6 6 7 6 6 7
11 14 15 12 2 1 7 9 3 1 2 2 4 6 3 8 9 6 4 3 3 4 3 3 4 3 3 1 1 3 4 4 4 4 3 3 3 3 3 4 5 5 7 9
15 15 12 3 5 2 7 1 1 5 6 6 5 1 5 7 6 4 4 5 5 4 3 2 2 1 1 3 4 4 4 4 5 5 3 1 2 2 2 3 4 5 7 8
13 14 7 5 3 5 4 1 6 9 9 7 2 5 5 6 7 6 7 7 6 5 4 3 2 2 3 5 4 4 4 4 4 5 5 5 2 3 3 3 4 5 6 7
8 8 7 8 7 6 7 7 8 9 7 4 5 7 6 7 7 6 5 5 5 5 5 4 4 3 4 5 5 4 4 5 5 5 5 6 5 7 6 4 4 5 6 6
11 11 10 10 9 8 9 9 8 8 7 6 6 7 7 7 6 5 4 4 4 4 5 5 5 5 6 7 6 5 5 5 5 5 5 6 5 6 6 5 5 5 5 5
14 12 13 15 15 13 9 9 9 10 8 7 7 7 7 7 6 6 5 5 5 4 4 5 6 6 7 7 6 6 6 5 5 4 5 5 5 5 5 4 5 4 4 3
16 13 12 10 10 10 9 10 10 10 9 9 8 8 8 8 7 7 7 7 6 6 5 6 7 7 8 8 7 6 5 5 5 5 5 5 6 5 3 4 6 5 3 2
16 15 15 15 13 14 12 11 12 11 11 10 10 9 9 8 9 9 9 9 8 8 8 8 9 9 9 8 8 8 6 6 5 6 7 7 7 7 7 5 6 7 9 8
14 14 17 17 16 14 13 11 13 14 13 12 11 11 10 10 10 11 10 10 9 9 10 10 10 10 9 8 6 6 7 8 7 6 7 8 8 8 9 9 8 7 10 11
16 15 16 16 15 14 13 12 13 14 15 14 13 13 12 12 12 12 11 11 11 10 10 10 10 10 9 9 8 7 6 6 6 5 6 5 6 7 6 6 4 5 8 8
10 12 14 14 13 12 14 15 15 15 15 15 15 14 14 13 13 13 12 12 12 12 11 10 9 9 9 8 8 7 5 2 4 6 6 5 6 5 3 3 2 2 2 7
10 10 11 11 11 11 13 15 16 16 17 17 16 15 16 15 14 14 14 13 11 11 11 11 10 10 10 9 9 9 9 10 9 7 7 7 7 5 3 2 3 2 1 7
8 8 9 9 10 11 12 14 15 15 16 17 19 18 17 16 15 15 14 14 13 13 12 12 12 11 10 10 9 9 8 9 10 10 9 7 6 5 5 5 5 4 4 7
4 4 6 8 9 9 11 14 15 15 16 17 18 18 17 17 15 14 14 14 14 15 13 14 17 14 12 11 11 8 9 9 10 10 9 6 5 6 6 7 6 5 5 4
2 5 8 10 11 12 12 13 14 15 14 15 16 16 17 18 17 16 14 15 14 13 13 14 15 15 14 13 14 12 12 12 11 10 10 10 10 10 10 9 8 6 4 5
4 6 9 11 12 13 15 16 15 13 14 15 15 16 17 17 18 16 15 17 13 13 13 17 15 14 14 13 16 14 12 11 12 12 11 11 11 10 10 9 7 6 6 7
8 10 11 13 14 14 14 15 16 17 14 13 16 17 16 16 18 16 15 13 12 17 16 14 14 16 17 17 14 14 13 13 12 11 11 11 10 10 9 8 7 6 7 8
11 10 12 14 15 16 17 17 18 17 14 11 11 13 16 15 17 17 16 13 13 15 15 14 15 18 19 16 13 14 15 15 13 12 11 11 10 9 8 7 5 4 6 8
15 13 13 14 15 17 18 19 18 16 17 14 11 11 14 15 15 16 12 15 20 20 15 14 17 20 20 14 13 14 14 13 13 13 13 12 10 8 6 5 4 5 7 8
16 16 16 17 18 17 16 16 16 16 17 14 14 11 12 13 15 14 13 13 17 19 17 16 20 22 18 14 15 15 14 13 14 13 12 9 8 7 6 5 4 6 7 7
17 17 16 14 14 13 14 13 11 9 9 11 12 9 7 8 10 11 11 14 14 16 15 11 14 17 17 15 15 15 13 12 13 12 11 8 8 8 6 5 7 7 6 5
18 15 11 12 12 12 12 11 11 10 7 4 7 10 7 4 6 9 11 11 10 11 12 11 12 14 15 15 14 12 11 10 10 11 10 9 8 7 6 7 7 6 4 3
Wind_Direction
296 297 296 301 305 303 292 286 281 287 287 294 299 250 192 197 174 159 154 154 142 134 109 312 307 319 317 324 341 341 338 10 28 45 96 73 49 49 37 23 47 37 41 36
292 293 296 297 299 302 302 303 300 292 296 308 290 183 173 197 207 198 193 196 196 34 43 346 313 300 308 323 355 3 21 32 31 33 61 64 69 65 59 52 53 53 61 57
293 298 304 297 305 306 307 309 310 307 313 303 230 197 208 216 219 216 204 191 189 215 1 325 298 290 290 298 339 12 47 54 48 46 51 34 41 53 41 40 40 39 63 75
284 290 288 294 309 299 300 301 300 294 286 214 214 208 217 217 211 198 201 203 185 213 265 277 269 267 270 254 254 8 43 44 41 43 48 55 60 54 50 51 49 47 59 76
287 288 291 301 301 285 305 302 307 281 269 199 189 228 229 212 203 202 202 193 187 219 255 254 245 250 257 258 279 6 34 45 47 45 51 60 70 63 49 47 46 49 57 58
269 284 292 299 131 31 302 284 56 24 297 270 248 260 285 184 185 190 181 195 234 244 250 236 223 242 253 244 67 64 67 68 63 54 57 78 98 86 61 50 44 50 58 53
261 277 289 52 105 287 291 349 49 301 299 278 266 22 113 138 163 175 192 203 231 241 232 219 193 214 133 95 82 76 75 84 73 49 32 53 169 147 94 67 56 63 76 70
276 273 286 67 303 302 320 287 276 287 290 284 214 145 168 170 167 186 198 206 217 214 206 193 163 146 114 96 87 82 79 81 78 52 34 40 81 142 116 102 86 80 86 86
285 299 327 294 289 291 284 274 277 278 277 256 213 202 197 168 175 197 204 207 201 198 195 184 186 183 132 120 111 103 96 90 82 71 52 50 77 100 106 111 110 93 91 91
256 266 279 290 286 257 249 253 256 259 248 231 217 208 185 173 185 195 205 212 209 209 195 186 186 169 143 138 139 137 129 116 100 86 73 60 64 94 104 104 102 100 99 100
285 273 271 272 272 259 246 238 242 248 233 217 217 205 181 181 186 183 184 194 198 196 187 174 171 162 153 150 149 139 139 142 137 123 108 105 92 85 95 90 100 107 108 112
280 286 279 277 290 280 239 223 229 241 232 210 205 203 190 181 172 175 179 182 191 191 173 156 160 162 154 155 162 164 167 172 176 174 163 152 141 136 87 125 139 133 144 151
274 282 288 284 277 275 253 216 209 219 228 219 204 201 190 176 168 178 181 184 190 185 171 161 159 157 159 167 170 172 179 191 198 180 172 178 179 173 174 191 214 226 226 232
276 280 281 280 274 273 269 232 206 207 211 215 207 199 191 179 176 185 186 184 187 180 168 169 170 170 172 173 174 177 185 191 209 193 190 190 192 200 190 183 189 205 220 226
260 263 267 268 259 250 256 250 220 209 205 204 201 198 195 185 182 187 189 183 182 183 180 181 182 178 183 186 192 208 219 206 206 210 213 199 195 214 198 179 188 187 168 182
261 275 281 278 274 258 247 244 231 218 208 198 199 198 196 190 186 189 194 193 188 193 191 191 190 188 196 202 201 214 214 190 217 223 216 203 227 236 198 160 211 250 148 155
260 268 281 290 288 280 263 256 239 220 214 204 200 199 197 196 191 191 195 198 196 199 196 196 198 199 202 202 213 228 216 189 198 238 242 218 209 211 215 240 256 249 100 118
230 246 264 277 282 285 283 272 255 228 217 211 204 202 201 199 199 196 195 196 198 203 206 202 200 200 207 206 208 239 241 183 189 219 235 227 211 209 224 233 240 240 168 160
241 274 293 298 301 299 289 279 271 249 223 214 208 203 201 200 199 197 194 197 200 204 204 207 205 200 207 210 205 214 249 239 203 207 227 211 202 226 242 251 251 247 257 235
351 342 329 324 320 316 307 296 281 264 242 219 208 203 201 200 198 199 197 202 207 211 202 201 202 204 211 205 204 214 222 237 238 223 217 220 219 223 232 239 243 242 245 263
317 313 312 313 316 317 315 312 308 284 255 232 211 203 201 199 199 199 203 210 205 202 206 201 201 205 208 206 197 217 224 225 230 234 231 227 229 230 231 229 229 227 241 261
336 324 313 307 304 304 306 307 306 304 286 246 219 206 201 199 200 199 201 210 210 200 206 214 209 208 206 203 206 214 225 233 234 232 230 231 235 237 234 224 223 234 249 257
300 301 300 299 300 297 294 294 297 301 298 276 231 208 204 202 202 204 207 206 215 213 207 216 214 196 187 197 211 215 221 229 233 236 236 236 236 234 228 215 212 249 272 267
299 296 291 289 289 289 287 286 287 290 291 290 266 222 204 201 201 204 204 205 207 213 216 218 206 181 178 197 213 220 221 220 223 229 233 236 237 226 198 183 200 251 270 267
291 288 285 283 282 281 280 280 281 281 279 276 269 250 218 207 204 202 204 209 206 203 214 212 194 182 188 205 215 221 224 222 222 223 225 226 215 192 171 173 219 257 263 251
288 286 285 282 283 280 279 276 274 273 282 292 286 268 232 208 200 198 202 209 207 207 214 210 193 192 201 209 218 223 223 219 215 217 219 202 187 172 172 199 240 250 249 245
285 281 280 282 284 283 281 280 276 267 253 256 301 311 304 258 212 207 209 212 212 210 213 212 192 193 204 213 219 220 218 219 217 211 201 186 173 168 185 217 237 239 236 244
Height
1486 1480 1477 1477 1478 1479 1484 1487 1496 1493 1490 1484 1484 1486 1488 1491 1490 1490 1492 1495 1497 1497 1499 1501 1501 1501 1501 1500 1499 1498 1498 1498 1498 1499 1499 1499 1498 1498 1497 1496 1496 1495 1494 1491
1487 1479 1475 1477 1476 1478 1480 1480 1483 1485 1484 1481 1482 1482 1485 1489 1490 1491 1493 1495 1496 1496 1497 1498 1499 1499 1498 1498 1497 1497 1497 1497 1497 1498 1498 1499 1499 1499 1499 1498 1498 1497 1496 1494
1490 1479 1478 1483 1476 1477 1478 1476 1479 1483 1484 1482 1484 1485 1487 1489 1490 1490 1492 1494 1494 1494 1494 1494 1496 1496 1497 1497 1496 1496 1496 1496 1496 1497 1498 1499 1499 1499 1499 1499 1500 1499 1498 1497
1488 1484 1494 1478 1470 1472 1475 1474 1474 1476 1478 1480 1482 1484 1486 1487 1488 1490 1491 1493 1493 1493 1493 1492 1492 1493 1495 1495 1495 1496 1496 1496 1496 1496 1497 1498 1498 1498 1499 1499 1500 1500 1500 1499
1488 1485 1478 1469 1465 1468 1473 1474 1470 1472 1474 1477 1480 1482 1483 1485 1486 1489 1490 1491 1492 1492 1492 1491 1491 1492 1493 1494 1494 1495 1495 1496 1496 1496 1496 1496 1497 1498 1499 1499 1500 1501 1501 1501
1485 1487 1486 1467 1462 1467 1472 1472 1470 1471 1473 1474 1476 1479 1480 1480 1484 1487 1489 1490 1490 1491 1491 1490 1490 1491 1491 1492 1493 1494 1495 1495 1495 1495 1495 1495 1496 1497 1498 1499 1500 1501 1501 1501
1477 1475 1466 1458 1462 1467 1475 1474 1472 1471 1472 1472 1473 1476 1480 1481 1484 1486 1487 1488 1489 1489 1489 1489 1489 1490 1490 1491 1492 1493 1494 1494 1494 1494 1495 1495 1495 1496 1497 1499 1500 1501 1501 1502
1468 1472 1469 1462 1462 1466 1469 1469 1470 1470 1469 1469 1471 1475 1478 1480 1482 1484 1486 1487 1487 1488 1488 1488 1488 1489 1489 1490 1491 1492 1492 1493 1493 1494 1495 1495 1495 1496 1497 1497 1499 1501 1501 1502
1464 1465 1463 1461 1462 1464 1466 1466 1467 1467 1467 1468 1470 1473 1475 1478 1480 1482 1484 1485 1486 1486 1486 1487 1487 1488 1489 1489 1490 1490 1491 1491 1492 1493 1494 1495 1496 1496 1496 1497 1499 1501 1501 1502
1459 1457 1458 1458 1459 1460 1462 1463 1465 1465 1465 1466 1468 1470 1473 1475 1478 1480 1482 1483 1484 1484 1485 1485 1486 1487 1488 1489 1489 1489 1490 1490 1491 1493 1494 1495 1496 1497 1497 1498 1500 1501 1501 1502
1456 1454 1454 1455 1455 1455 1456 1459 1461 1462 1463 1464 1466 1468 1471 1474 1476 1478 1480 1481 1482 1483 1483 1484 1485 1486 1487 1488 1489 1490 1490 1490 1491 1493 1494 1495 1496 1497 1498 1499 1500 1501 1501 1502
1453 1451 1450 1450 1451 1450 1452 1454 1458 1460 1461 1463 1465 1467 1469 1471 1474 1476 1478 1479 1481 1482 1483 1483 1484 1486 1487 1488 1490 1491 1491 1492 1493 1494 1495 1496 1497 1498 1498 1499 1500 1501 1501 1502
1449 1448 1447 1446 1446 1447 1447 1449 1453 1456 1459 1461 1463 1465 1467 1469 1472 1474 1476 1478 1479 1480 1482 1483 1484 1486 1487 1489 1490 1491 1492 1493 1494 1495 1496 1496 1497 1498 1498 1499 1499 1500 1500 1501
1445 1445 1444 1443 1442 1443 1443 1443 1446 1450 1454 1457 1460 1462 1464 1467 1469 1472 1474 1476 1477 1479 1480 1482 1484 1486 1487 1489 1490 1491 1492 1493 1493 1494 1495 1496 1496 1497 1497 1497 1497 1498 1498 1499
1438 1438 1437 1436 1436 1437 1438 1440 1441 1444 1448 1452 1455 1458 1461 1464 1466 1469 1471 1473 1475 1477 1479 1481 1482 1484 1486 1487 1489 1490 1491 1491 1492 1493 1493 1494 1495 1495 1496 1497 1497 1497 1496 1497
1432 1432 1432 1431 1430 1431 1432 1434 1436 1438 1442 1445 1449 1453 1456 1459 1462 1465 1468 1470 1472 1474 1476 1478 1480 1482 1483 1485 1486 1487 1488 1488 1490 1491 1491 1492 1493 1493 1494 1495 1496 1496 1497 1496
1427 1427 1427 1427 1427 1427 1427 1428 1429 1431 1435 1438 1442 1446 1450 1454 1457 1460 1463 1466 1468 1471 1473 1475 1477 1479 1480 1482 1483 1484 1484 1485 1486 1488 1488 1489 1490 1491 1492 1493 1493 1494 1494 1493
1421 1423 1424 1424 1424 1424 1423 1423 1422 1424 1427 1430 1434 1439 1443 1446 1450 1453 1457 1460 1463 1466 1468 1470 1472 1474 1476 1478 1479 1480 1481 1481 1482 1484 1485 1486 1487 1488 1489 1490 1490 1491 1490 1489
1418 1419 1421 1421 1421 1420 1420 1419 1418 1418 1419 1422 1425 1429 1433 1437 1442 1446 1449 1453 1455 1458 1461 1464 1467 1469 1471 1473 1474 1475 1477 1478 1479 1480 1481 1482 1483 1484 1486 1486 1487 1487 1487 1487
1417 1418 1418 1418 1418 1417 1416 1414 1413 1413 1413 1414 1416 1420 1423 1428 1432 1437 1441 1444 1447 1451 1454 1456 1459 1461 1464 1466 1469 1470 1472 1473 1474 1475 1477 1478 1479 1480 1481 1481 1482 1482 1482 1482
1415 1416 1416 1416 1415 1414 1412 1410 1407 1405 1405 1405 1407 1409 1413 1418 1422 1427 1432 1436 1439 1443 1446 1449 1451 1454 1456 1459 1462 1464 1466 1467 1469 1470 1471 1472 1473 1474 1475 1476 1476 1476 1477 1477
1413 1413 1413 1412 1411 1410 1407 1405 1402 1398 1396 1395 1397 1400 1404 1408 1413 1417 1422 1427 1431 1434 1438 1441 1443 1446 1449 1452 1454 1456 1459 1461 1462 1463 1465 1466 1467 1468 1469 1470 1470 1471 1471 1472
1409 1409 1408 1407 1406 1404 1402 1399 1396 1393 1389 1388 1388 1391 1395 1399 1403 1407 1412 1418 1424 1427 1429 1432 1435 1438 1441 1444 1447 1449 1451 1453 1455 1456 1458 1459 1460 1462 1463 1463 1464 1465 1466 1466
1405 1403 1402 1400 1399 1397 1394 1392 1389 1387 1384 1382 1381 1382 1386 1390 1394 1398 1403 1409 1414 1417 1420 1423 1427 1429 1432 1435 1439 1441 1443 1445 1447 1449 1451 1453 1454 1455 1455 1456 1457 1459 1460 1460
1398 1396 1394 1392 1390 1387 1385 1383 1381 1379 1378 1376 1375 1375 1377 1379 1383 1388 1393 1399 1404 1408 1411 1414 1417 1420 1423 1427 1430 1433 1435 1437 1439 1442 1444 1445 1447 1448 1448 1450 1451 1453 1454 1454
1389 1387 1384 1382 1380 1378 1376 1374 1372 1371 1370 1369 1368 1368 1370 1372 1375 1379 1384 1389 1394 1398 1402 1405 1408 1411 1415 1418 1422 1425 1427 1429 1432 1434 1437 1438 1439 1441 1442 1444 1446 1447 1449 1449
1380 1378 1375 1372 1371 1369 1367 1365 1364 1363 1362 1362 1362 1362 1363 1365 1368 1372 1376 1381 1385 1389 1392 1396 1399 1402 1406 1410 1414 1417 1420 1422 1425 1427 1429 1431 1432 1434 1436 1439 1441 1443 1444 1444